Weather History for Budapest Ferihegy, Hungary

Change the Weather History Date:

Monday, December 24, 2012

  Actual Average Record
Temperature  
Mean Temperature 32 °F -  
Max Temperature 33 °F 35 °F 50 °F (2010)
Min Temperature 30 °F 22 °F 1 °F (2001)
Degree Days  
Heating Degree Days 34    
Moisture  
Dew Point 31 °F    
Average Humidity 100    
Maximum Humidity 100    
Minimum Humidity 93    
Precipitation  
Precipitation 0.00 in - - ()
Sea Level Pressure  
Sea Level Pressure 30.07 in    
Wind  
Wind Speed 5 mph ()    
Max Wind Speed 9 mph    
Max Gust Speed -    
Visibility 1.1 miles    
Events Fog    
Averages and records for this station are not official NWS values.
T = Trace of Precipitation, MM = Missing Value Source: Averaged Metar Reports

Daily Weather History Graph

Daily Weather History Graph

Search for Another Location

Airport:

Trip Planner

Search our weather history database for the weather conditions in past years. The results will help you decide how hot, cold, wet, or windy it might be!

Date:

Astronomy

Dec. 24, 2012 Rise Set
Actual Time 7:29 AM CET 3:56 PM CET
Civil Twilight 6:53 AM CET 4:32 PM CET
Nautical Twilight 6:13 AM CET 5:11 PM CET
Astronomical Twilight 5:36 AM CET 5:48 PM CET
Moon 1:18 PM CET (12/24) 3:44 AM CET (12/24)
Length of Visible Light 9h 39m
Length of Day
8h 27m
Waxing Gibbous, 86% of the Moon is Illuminated
Dec 24
Waxing Gibbous
Dec 28
Full
Jan 5
Last Quarter
Jan 11
New
Jan 19
First Quarter

Hourly Weather History & Observations

Time (CET) Temp. Windchill Dew Point Humidity Pressure Visibility Wind Dir Wind Speed Gust Speed Precip Events Conditions
12:00 AM 30.2 °F 24.3 °F 28.4 °F 93% 30.09 in - ESE 5.8 mph - N/A   Overcast
12:30 AM 30.2 °F 24.3 °F 28.4 °F 93% 30.09 in 2.2 mi ESE 5.8 mph - N/A   Overcast
1:00 AM 30.2 °F 25.4 °F 30.2 °F 100% 30.09 in 2.2 mi East 4.6 mph - N/A   Overcast
1:30 AM 30.2 °F 25.4 °F 30.2 °F 100% 30.09 in 2.2 mi East 4.6 mph - N/A   Overcast
2:00 AM 30.2 °F 26.7 °F 30.2 °F 100% 30.09 in 1.9 mi Variable 3.5 mph - N/A   Overcast
2:30 AM 30.2 °F 26.7 °F 30.2 °F 100% 30.09 in 1.7 mi Variable 3.5 mph - N/A   Overcast
3:00 AM 30.2 °F 26.7 °F 30.2 °F 100% 30.09 in 1.7 mi Variable 3.5 mph - N/A   Overcast
3:30 AM 30.2 °F 25.4 °F 30.2 °F 100% 30.06 in 1.7 mi East 4.6 mph - N/A   Light Freezing Rain
4:00 AM 30.2 °F 25.4 °F 30.2 °F 100% 30.06 in 1.7 mi East 4.6 mph - N/A   Light Freezing Rain
4:30 AM 30.2 °F 25.4 °F 30.2 °F 100% 30.06 in 1.7 mi East 4.6 mph - N/A   Light Freezing Rain
5:00 AM 30.2 °F 25.4 °F 30.2 °F 100% 30.06 in 1.7 mi East 4.6 mph - N/A   Overcast
5:30 AM 30.2 °F 26.7 °F 30.2 °F 100% 30.09 in 1.7 mi Variable 3.5 mph - N/A   Overcast
6:00 AM 30.2 °F 26.7 °F 30.2 °F 100% 30.09 in 1.6 mi Variable 3.5 mph - N/A   Overcast
6:30 AM 30.2 °F 26.7 °F 30.2 °F 100% 30.09 in 1.6 mi Variable 3.5 mph - N/A   Overcast
7:00 AM 30.2 °F 24.3 °F 30.2 °F 100% 30.06 in 1.6 mi ESE 5.8 mph - N/A   Overcast
7:30 AM 30.2 °F 26.7 °F 30.2 °F 100% 30.09 in 1.6 mi Variable 3.5 mph - N/A   Mostly Cloudy
8:00 AM 30.2 °F 25.4 °F 30.2 °F 100% 30.06 in 0.9 mi SE 4.6 mph - N/A   Mostly Cloudy
8:30 AM 30.2 °F 26.7 °F 30.2 °F 100% 30.09 in 1.1 mi Variable 3.5 mph - N/A   Overcast
9:00 AM 30.2 °F - 30.2 °F 100% 30.09 in 1.2 mi Variable 2.3 mph - N/A   Overcast
9:30 AM 32.0 °F 28.7 °F 32.0 °F 100% 30.09 in 1.2 mi Variable 3.5 mph - N/A   Overcast
10:00 AM 32.0 °F 28.7 °F 32.0 °F 100% 30.09 in 1.6 mi Variable 3.5 mph - N/A   Overcast
10:30 AM 32.0 °F 27.5 °F 32.0 °F 100% 30.09 in 1.6 mi East 4.6 mph - N/A   Overcast
11:00 AM 32.0 °F 28.7 °F 32.0 °F 100% 30.09 in 1.6 mi Variable 3.5 mph - N/A   Overcast
11:30 AM 32.0 °F 28.7 °F 32.0 °F 100% 30.09 in 1.1 mi Variable 3.5 mph - N/A   Overcast
12:00 PM 32.0 °F 27.5 °F 32.0 °F 100% 30.06 in 1.1 mi East 4.6 mph - N/A   Overcast
12:30 PM 32.0 °F 27.5 °F 32.0 °F 100% 30.06 in 1.1 mi East 4.6 mph - N/A   Mostly Cloudy
1:00 PM 33.8 °F 28.6 °F 33.8 °F 100% 30.06 in 1.2 mi East 5.8 mph - N/A   Mostly Cloudy
1:30 PM 32.0 °F 26.4 °F 32.0 °F 100% 30.06 in 1.2 mi ENE 5.8 mph - N/A   Mostly Cloudy
2:00 PM 32.0 °F 26.4 °F 32.0 °F 100% 30.04 in 1.1 mi NE 5.8 mph - N/A   Overcast
2:30 PM 32.0 °F 26.4 °F 32.0 °F 100% 30.04 in 0.9 mi NE 5.8 mph - N/A   Overcast
3:00 PM 32.0 °F 26.4 °F 32.0 °F 100% 30.04 in 0.8 mi ENE 5.8 mph - N/A   Overcast
3:30 PM 32.0 °F 26.4 °F 32.0 °F 100% 30.04 in 0.7 mi East 5.8 mph - N/A   Overcast
4:00 PM 32.0 °F 25.6 °F 32.0 °F 100% 30.06 in 0.7 mi ENE 6.9 mph - N/A Fog Patches of Fog
4:30 PM 32.0 °F 26.4 °F 32.0 °F 100% 30.06 in 0.6 mi ENE 5.8 mph - N/A Fog Patches of Fog
5:00 PM 32.0 °F 25.6 °F 32.0 °F 100% 30.06 in 0.6 mi NE 6.9 mph - N/A Fog Patches of Fog
5:30 PM 32.0 °F 24.8 °F 32.0 °F 100% 30.06 in 0.6 mi NE 8.1 mph - N/A   Overcast
6:00 PM 32.0 °F 26.4 °F 32.0 °F 100% 30.06 in 0.6 mi NE 5.8 mph - N/A   Overcast
6:30 PM 32.0 °F 25.6 °F 32.0 °F 100% 30.06 in 0.6 mi ENE 6.9 mph - N/A   Overcast
7:00 PM 30.2 °F 21.9 °F 30.2 °F 100% 30.06 in 0.5 mi ENE 9.2 mph - N/A   Overcast
7:30 PM 30.2 °F 22.6 °F 30.2 °F 100% 30.06 in 0.3 mi NE 8.1 mph - N/A Fog Light Freezing Fog
8:00 PM 30.2 °F 23.4 °F 30.2 °F 100% 30.06 in 0.2 mi NE 6.9 mph - N/A Fog Light Freezing Fog
8:30 PM 32.0 °F 24.8 °F 32.0 °F 100% 30.06 in 0.2 mi NE 8.1 mph - N/A Fog Light Freezing Fog
9:00 PM 32.0 °F 25.6 °F 32.0 °F 100% 30.06 in 0.3 mi NE 6.9 mph - N/A Fog Light Freezing Fog
9:30 PM 32.0 °F 24.8 °F 32.0 °F 100% 30.06 in 0.2 mi NE 8.1 mph - N/A Fog Light Freezing Fog
10:00 PM 30.2 °F 22.6 °F 30.2 °F 100% 30.06 in 0.2 mi NNE 8.1 mph - N/A Fog Light Freezing Fog
10:30 PM 32.0 °F 25.6 °F 32.0 °F 100% 30.06 in 0.2 mi NE 6.9 mph - N/A Fog Light Freezing Fog
11:00 PM 32.0 °F 24.8 °F 32.0 °F 100% 30.04 in 0.2 mi NE 8.1 mph - N/A Fog Light Freezing Fog
11:30 PM 30.2 °F 21.9 °F 30.2 °F 100% 30.04 in 0.2 mi ENE 9.2 mph - N/A Fog Light Freezing Fog